Location: Observatoire de Paris
(48.8363°N, 2.3365°E)
Time: 04:46:40
(UTC+01:00)

Altair - Visible Passes

Search period start: 26 July 2021 00:00
Search period end: 05 August 2021 00:00
Orbit: 1501 x 1682 km, 47.2° (Epoch: 25 July)

Date Brightness Start Highest point End Pass type
(mag) Time Alt. Az. Time Alt. Az. Time Alt. Az.
26 Jul 8.2 03:26:50 16° SSW 03:33:28 37° SE 03:41:34 10° ENE visible
27 Jul 8.2 03:02:52 19° S 03:08:24 34° SE 03:16:22 10° E visible
28 Jul 8.3 02:38:53 22° S 02:43:21 32° SE 02:51:08 10° E visible
28 Jul 7.6 04:37:46 10° WSW 04:46:57 67° SSE 04:56:01 10° E visible
29 Jul 8.3 02:14:51 24° S 02:18:18 30° SE 02:25:53 10° E visible
29 Jul 7.6 04:12:50 11° WSW 04:21:49 65° SSE 04:30:52 10° E visible
30 Jul 8.3 01:50:46 25° SSE 01:53:16 28° SE 02:00:37 10° E visible
30 Jul 7.6 03:48:46 15° SW 03:56:42 63° SSE 04:05:42 10° ENE visible
31 Jul 8.4 01:26:40 25° SSE 01:28:13 26° SE 01:35:21 10° E visible
31 Jul 7.6 03:24:40 19° SW 03:31:35 60° SSE 03:40:33 10° ENE visible
01 Aug 8.5 01:02:32 24° SE 01:03:11 24° SE 01:10:02 10° E visible
01 Aug 7.6 03:00:31 24° SW 03:06:28 58° SSE 03:15:23 10° ENE visible
02 Aug 8.5 00:38:20 22° SE 00:38:20 22° SE 00:44:41 10° E visible
02 Aug 7.6 02:36:19 28° SW 02:41:21 55° SSE 02:50:13 10° ENE visible
02 Aug 7.5 04:36:16 10° W 04:45:37 81° S 04:54:48 10° E visible
03 Aug 8.7 00:14:07 20° ESE 00:14:07 20° ESE 00:19:18 10° E visible
03 Aug 7.6 02:12:05 33° SSW 02:16:15 52° SSE 02:25:03 10° ENE visible
03 Aug 7.5 04:11:06 10° WSW 04:20:27 81° S 04:29:38 10° E visible
03 Aug 8.8 23:49:49 17° ESE 23:49:49 17° ESE 23:53:52 10° E visible
04 Aug 7.6 01:47:48 36° SSW 01:51:09 50° SSE 01:59:54 10° ENE visible
04 Aug 7.4 03:45:55 10° WSW 03:55:18 80° S 04:04:29 10° E visible
04 Aug 8.9 23:25:29 15° ESE 23:25:29 15° ESE 23:28:21 10° E visible
